Location: Ardick
(31.4613°N, 81.4334°W)
Time: 21:47:16
(UTC+00:00)

X-37B - Pass Details

Date: 21 September 2021
Orbit: 385 x 389 km, 45.0° (Epoch: 13 October)

Event Time Altitude Azimuth Distance (km) Brightness Sun altitude
Exits shadow 08:55:35 13° 75° (ENE) 1,246 4.0 -29.6°
Drops below altitude 10° 08:56:01 10° 72° (ENE) 1,408 4.3 -29.5°
Sets 08:58:11 0° 63° (ENE) 2,266 5.7 -29.1°
